Вернуться в каталог

SL-8 R/B

АктивенPO
NORAD 23279·ROCKET BODY·🇷🇺 Russia

Запущен Sep 27, 1994 с Plesetsk Cosmodrome

Loading…

Ближайшие Пролёты (ближайшие 24 часа)

TLE

СвежийSource: Space-Track

Эпоха: Sep 14, 2026, 16:02 UTC

1 23279U 94061B   26257.66806465  .00006262  00000-0  30695-3 0  9998
2 23279  82.9567 227.4472 0589630  97.5911 269.2622 14.30926158598407

Отслеживайте SL-8 R/B в реальном времени с AllMySat

Download on the App Store